Dewpoint
75 76 70 70 68 68 66 63 35 39 38 30 32 37 40 45 44 43 46 48 47 50 52 54 56 56 53 54 55 59 60 54 56 44 50 64 70 71 72 72 71 71 71 72 74 75 76 76 76 76 77 77 77 77 77 77 77 77 77 77 77 77 76 76 76 76 76 76 75 75 75 75 75 76 76 76 76 76 75 74 74 74 74 74 74 75 76 76 76 77 77 76 76 76 76 76 75
70 71 69 67 67 65 57 58 37 36 36 32 35 37 42 41 42 43 40 45 48 50 52 54 56 56 55 54 56 55 58 60 61 63 65 67 69 71 72 71 70 71 72 72 73 73 74 76 76 76 76 77 77 77 77 77 77 77 77 77 77 77 76 76 76 75 76 75 75 75 75 75 75 74 75 75 75 76 75 75 75 75 75 75 75 74 75 76 76 76 76 76 76 75 75 75 74
69 69 66 67 66 65 61 62 35 31 31 33 39 41 39 39 41 43 45 48 51 53 54 56 56 55 55 55 53 52 57 62 62 63 64 67 66 70 71 71 71 72 72 72 73 75 75 76 75 76 76 77 77 77 77 77 77 77 77 77 77 77 76 76 76 76 75 75 75 75 75 75 75 75 75 75 76 76 76 76 76 76 76 75 75 74 75 76 76 76 76 76 75 75 75 75 75
70 69 67 67 65 64 40 31 39 31 31 37 39 37 41 43 46 47 49 51 52 53 54 52 55 57 50 52 56 58 58 60 62 63 64 65 68 70 71 72 73 71 71 72 72 74 75 75 75 76 77 77 77 77 77 77 77 77 77 77 77 77 76 76 75 75 75 74 75 75 75 75 75 75 75 75 75 76 76 76 76 75 75 75 75 75 75 75 75 75 75 75 74 75 75 75 75
70 70 68 65 65 43 42 35 35 30 28 33 35 39 43 47 50 51 52 52 53 52 52 55 56 59 60 58 56 53 58 61 62 62 63 66 69 71 71 72 71 70 71 72 72 73 75 75 74 74 77 76 76 77 76 77 77 77 77 77 77 76 76 76 75 75 75 75 75 75 75 75 75 75 75 75 75 75 76 75 75 75 75 75 75 74 75 74 74 74 74 75 75 75 75 75 75
68 68 68 66 62 59 52 33 34 37 34 34 38 40 45 49 51 52 53 53 53 53 54 51 52 54 57 58 58 57 60 58 62 62 65 67 69 70 72 72 70 70 71 72 72 74 75 75 75 75 77 77 76 76 77 77 76 77 77 77 76 76 76 76 75 75 75 75 75 75 75 75 75 75 75 75 75 75 75 75 75 74 74 74 75 75 75 74 74 74 74 74 74 75 75 76 75
64 65 66 66 65 59 35 31 29 35 34 37 38 44 47 48 51 52 52 52 53 54 54 52 54 54 54 59 62 63 63 62 62 64 66 67 69 71 71 71 72 71 71 72 73 74 75 76 76 76 76 77 76 76 76 76 76 76 75 75 75 75 75 75 75 75 75 75 75 75 75 75 75 75 75 75 75 75 74 74 74 74 74 73 74 74 74 74 74 74 74 73 74 74 75 75 75
66 63 56 55 38 38 31 30 30 36 38 39 42 44 49 50 51 50 51 48 49 50 53 55 53 53 55 57 58 62 62 63 63 66 67 67 69 70 71 71 71 70 71 73 74 75 78 76 77 77 77 76 76 76 76 76 75 76 75 75 75 75 75 75 75 75 76 75 75 75 75 75 75 75 75 75 74 74 74 73 73 73 73 73 72 73 73 72 72 73 74 73 73 73 74 74 74
64 62 59 56 34 31 31 31 35 39 40 42 44 49 55 51 50 50 49 49 49 50 51 52 52 53 56 57 59 63 63 64 65 68 67 67 68 69 69 70 70 72 72 71 73 76 76 77 77 77 76 76 75 76 76 76 76 75 75 74 75 75 76 76 75 74 75 75 75 75 75 75 74 74 74 74 74 74 73 73 73 73 73 73 73 73 73 72 72 72 72 73 72 72 73 73 74
63 59 42 40 34 31 29 31 35 38 39 42 45 47 47 48 48 46 47 47 50 53 55 55 55 55 57 57 59 61 63 65 66 67 68 67 68 68 69 70 71 71 71 71 74 73 75 78 77 77 76 76 76 76 76 76 76 76 75 76 76 76 76 76 75 75 75 75 75 75 75 75 74 74 74 74 74 74 73 73 73 73 73 72 72 73 71 73 74 76 76 77 77 76 74 72 72
59 55 48 43 31 29 31 31 37 39 41 43 45 46 46 46 47 47 48 48 50 52 55 55 53 55 56 59 62 64 64 65 65 66 67 68 69 68 68 71 70 71 70 70 72 74 75 75 78 77 77 76 76 76 76 77 77 77 76 76 76 76 75 75 75 75 75 75 75 75 75 74 74 74 74 74 74 74 74 73 73 73 72 73 73 73 73 73 75 76 75 76 76 76 75 75 75
55 43 44 34 31 30 29 32 36 39 41 44 44 47 47 45 45 46 47 49 50 51 52 54 56 58 57 58 61 64 63 63 64 66 68 68 67 67 69 69 69 69 68 69 71 72 75 76 77 78 77 77 77 77 77 77 77 77 76 76 76 76 75 75 75 74 74 73 74 74 75 74 74 74 74 73 74 74 74 74 73 73 73 72 73 72 72 75 76 75 75 75 76 75 75 75 75
55 40 32 29 28 29 29 33 37 41 40 40 44 48 49 48 44 47 49 49 49 51 51 55 56 56 55 58 63 64 62 63 64 65 68 68 67 67 69 68 69 69 69 71 72 73 75 74 75 77 77 77 77 77 77 77 76 77 76 76 76 76 75 75 74 74 74 74 74 74 74 74 74 74 74 74 73 74 74 73 73 73 72 72 72 71 71 77 76 75 75 75 75 75 75 74 74
54 43 38 33 33 28 28 32 35 34 38 41 46 49 50 48 47 48 48 51 53 52 53 55 57 58 59 60 62 61 62 65 64 65 64 68 67 67 68 67 68 70 72 73 73 74 73 74 71 75 77 77 77 78 77 77 76 76 77 76 76 76 76 75 75 75 75 75 74 73 74 74 74 75 74 74 74 73 73 73 73 72 72 73 73 73 72 76 76 75 75 74 74 73 74 73 73
54 45 36 34 29 29 30 31 29 32 37 44 48 50 51 52 49 49 49 53 54 54 57 59 57 54 56 57 58 61 63 65 65 66 66 67 68 68 69 68 68 72 71 70 72 72 73 73 71 74 76 76 77 77 78 78 77 77 76 76 76 76 76 76 75 75 75 75 74 75 75 76 75 75 75 76 76 74 74 73 73 73 73 73 73 72 73 76 75 75 74 74 74 72 73 73 73
53 45 33 31 26 26 29 28 29 31 37 45 49 51 52 53 52 51 53 54 56 56 58 54 58 57 55 56 58 62 65 65 66 65 66 67 69 70 68 68 68 70 71 71 71 73 73 74 74 74 74 76 75 76 77 78 77 77 76 77 77 77 76 77 76 75 74 75 75 76 76 77 76 75 76 75 75 75 74 75 74 73 73 73 72 73 73 76 75 75 75 75 75 74 73 74 74
50 44 29 26 25 23 26 28 29 29 39 45 50 51 50 53 56 55 55 55 55 57 60 60 54 57 58 58 61 64 65 66 67 66 65 67 69 68 68 67 68 69 70 71 71 71 72 74 75 74 76 76 76 76 75 75 78 77 77 77 76 76 76 76 76 75 75 75 76 77 76 77 77 77 77 74 75 75 76 76 75 76 74 74 74 74 74 76 76 76 76 75 75 74 74 74 74
46 37 26 25 23 23 26 27 30 33 38 45 50 49 51 52 55 56 56 55 57 59 61 62 62 61 61 63 65 65 65 65 65 64 65 66 66 63 64 66 66 67 68 69 71 71 71 74 74 75 76 77 77 76 76 76 76 76 77 76 76 77 76 76 77 76 75 77 75 77 77 76 75 77 78 74 76 75 75 76 76 76 76 75 75 75 75 75 76 76 76 75 74 74 74 75 75
43 29 24 24 22 26 29 31 32 33 36 46 47 48 49 51 54 55 53 55 58 60 61 61 62 63 64 64 65 65 65 64 65 64 63 65 64 63 62 64 67 67 67 67 70 71 72 72 74 75 75 78 77 77 76 75 76 76 74 75 74 75 75 75 74 75 76 76 75 77 78 77 77 77 77 76 76 75 77 75 77 77 76 75 76 76 77 76 77 76 76 75 75 75 75 74 74
31 28 22 23 27 31 34 34 34 35 40 45 47 48 49 51 51 53 50 52 55 57 59 60 60 62 63 64 65 65 64 65 66 65 63 65 65 64 64 63 63 66 67 67 68 71 72 71 73 73 74 75 75 74 75 75 76 77 75 76 76 74 75 75 75 76 76 77 76 77 76 78 78 78 75 76 77 76 75 76 77 77 77 76 77 77 76 76 77 77 77 75 75 74 75 72 71
24 24 21 25 30 31 41 39 40 39 42 46 46 48 49 50 50 49 47 49 50 54 59 60 60 62 62 63 65 65 65 64 65 64 64 65 65 64 65 65 64 66 67 68 69 71 71 72 72 73 75 74 74 73 75 74 75 74 74 74 75 74 76 74 74 75 74 75 75 76 76 76 76 76 77 77 76 76 76 75 74 74 73 74 74 75 72 73 77 75 76 75 75 74 73 71 71
24 30 28 33 35 35 44 43 43 43 45 45 45 45 48 50 51 50 49 45 50 54 58 61 62 62 62 62 64 64 65 65 64 64 64 63 64 65 64 66 67 66 67 68 69 70 71 72 72 72 73 73 73 73 73 75 74 72 73 75 75 75 74 73 72 73 73 75 74 73 73 74 76 75 76 76 75 75 75 73 73 73 74 75 74 72 70 72 73 71 72 72 71 71 70 71 70
23 34 40 42 36 41 47 46 46 44 42 43 46 46 48 51 53 55 55 53 55 59 61 62 63 63 63 63 63 64 64 64 63 64 65 63 65 65 65 64 65 66 67 67 69 70 71 72 72 72 71 73 74 73 72 72 73 73 75 74 75 74 73 73 73 72 73 74 74 74 72 72 72 71 73 74 74 73 72 70 71 74 75 75 73 73 74 74 73 71 71 72 72 70 69 70 71
24 31 41 40 39 45 47 46 46 43 42 43 46 45 44 48 53 56 57 58 60 61 62 63 63 64 64 63 63 62 63 64 63 64 65 65 65 65 66 64 65 65 67 68 67 69 71 70 73 72 72 73 73 74 74 72 73 72 72 74 72 72 73 72 70 70 73 72 74 73 72 70 69 69 71 72 71 72 71 72 72 74 74 74 74 74 72 73 72 71 72 73 73 73 69 70 68
28 36 42 46 45 48 47 45 44 44 43 43 44 46 50 51 54 56 57 59 61 62 63 63 63 64 64 64 63 64 65 63 63 63 64 65 65 65 65 65 66 66 67 68 67 68 70 71 73 72 72 74 73 72 72 71 72 73 73 74 74 73 73 71 71 74 73 72 74 76 75 70 69 69 70 71 73 73 73 74 75 75 75 74 74 74 74 73 74 72 72 73 73 72 69 70 70
33 41 43 45 45 47 46 43 41 42 42 43 45 50 53 55 57 56 58 60 61 62 63 62 63 63 63 63 64 66 67 64 63 63 63 64 64 65 66 66 66 66 67 68 67 68 69 71 71 71 72 73 73 72 72 71 71 71 72 75 74 75 74 73 74 72 71 71 72 74 75 72 70 68 68 70 72 75 75 74 75 75 74 75 75 75 75 75 72 71 72 73 73 73 72 71 70
45 43 43 45 47 45 44 41 41 41 42 45 48 50 52 53 49 54 58 60 61 62 62 63 63 62 62 61 63 66 65 63 64 64 64 65 66 66 66 65 65 66 67 67 66 67 69 69 70 72 72 73 73 71 71 72 73 72 72 72 72 73 73 75 74 73 72 71 71 75 76 76 74 72 71 72 73 74 74 74 73 73 73 74 75 75 75 75 74 73 75 74 71 72 73 71 70
45 46 47 47 46 44 43 45 47 48 48 48 48 49 51 49 47 53 58 59 59 60 61 61 61 62 63 63 65 67 66 66 66 65 65 66 66 65 66 66 66 65 66 67 67 68 67 68 68 71 71 73 73 71 72 72 73 72 73 72 73 73 75 73 72 73 73 72 73 74 75 75 74 73 74 73 73 72 72 71 71 72 72 73 75 74 74 74 75 75 75 76 76 74 72 72 72
46 44 43 47 45 42 42 41 42 46 45 46 45 46 44 45 50 57 59 59 58 59 60 60 61 62 63 64 64 66 66 66 66 66 65 66 67 67 66 66 66 67 67 68 68 69 67 68 68 70 71 73 74 72 72 72 73 73 73 73 73 74 74 73 72 72 72 73 74 75 75 76 76 74 74 74 73 72 72 73 73 74 74 74 73 73 72 74 75 74 75 74 74 74 73 72 73
42 37 42 43 40 39 42 44 43 41 45 47 46 34 42 50 55 57 59 58 58 57 58 59 60 62 64 65 64 66 66 67 66 66 67 67 68 68 69 69 70 69 69 70 70 70 70 71 69 71 71 72 74 73 73 72 74 75 75 75 75 75 73 73 73 73 74 73 75 76 76 76 76 75 75 75 75 74 74 74 74 74 75 73 73 74 72 74 73 73 73 73 73 72 71 72 72
34 37 35 36 36 37 44 43 43 37 47 51 47 34 39 51 55 58 59 58 57 56 56 57 59 60 63 65 65 65 67 68 67 67 68 69 69 69 70 71 71 72 72 72 74 74 74 73 74 73 73 73 73 74 74 74 75 75 74 74 74 75 75 74 72 73 74 75 75 75 76 76 76 77 76 76 75 74 73 73 74 73 75 73 72 73 73 72 72 73 73 73 73 73 72 72 72
35 33 29 31 30 37 42 45 42 38 42 45 38 32 37 49 55 58 59 58 56 56 54 55 57 59 61 63 64 64 66 67 68 67 68 69 71 69 70 72 72 72 73 75 75 75 75 74 75 73 74 74 74 74 74 75 75 76 75 74 75 76 75 75 75 75 75 76 76 76 76 76 76 76 77 76 76 75 73 72 73 76 75 73 72 73 72 73 73 72 73 73 73 72 73 73 73
32 25 28 28 28 36 43 44 44 48 44 43 39 33 40 49 55 57 57 57 55 54 53 55 56 58 60 62 63 64 65 66 69 69 70 71 71 71 71 73 73 74 74 75 75 75 76 75 75 74 72 73 74 74 74 75 75 76 76 76 76 76 75 75 75 76 76 76 76 76 76 76 76 76 76 75 75 75 75 74 75 74 73 73 72 73 72 72 73 71 73 74 73 73 72 72 72
30 26 28 30 28 34 34 42 42 45 44 36 37 33 40 47 55 58 57 56 55 53 53 53 55 57 61 62 62 62 64 66 67 69 70 70 71 71 72 72 73 74 75 75 76 75 75 74 74 74 73 71 73 74 75 75 76 77 77 77 77 76 75 74 75 75 75 75 76 75 76 76 74 74 74 74 75 75 75 75 75 74 74 74 73 72 72 73 73 72 72 73 72 73 72 71 71
25 26 26 27 28 31 30 39 42 46 42 39 39 39 44 49 55 56 57 56 56 54 54 53 54 56 60 61 61 62 63 64 65 68 69 72 71 72 71 72 72 73 74 75 76 76 75 75 74 75 75 74 73 75 75 76 76 78 76 76 76 76 76 75 76 75 75 75 74 75 75 75 73 73 73 73 74 75 75 75 74 73 73 73 73 72 71 72 72 72 71 72 72 71 69 71 71
23 21 24 27 27 30 29 31 42 44 41 38 38 39 44 49 53 55 55 56 57 56 55 55 56 56 59 60 61 61 63 62 65 68 69 70 71 71 70 71 71 72 73 74 75 75 75 75 75 75 75 74 75 75 75 74 75 74 72 73 74 73 74 74 75 74 74 73 74 75 74 74 74 74 73 72 72 73 73 73 73 73 73 72 72 71 71 71 72 72 72 72 71 72 72 71 71
22 20 22 23 23 26 29 34 45 44 40 38 38 39 43 47 52 55 56 56 58 57 56 57 56 56 56 58 59 60 63 61 67 69 69 69 69 71 71 70 71 72 73 74 75 75 75 74 74 74 74 76 75 75 75 73 72 72 72 72 71 70 73 74 74 74 73 71 74 75 74 74 74 73 73 72 71 71 71 71 71 72 71 71 71 70 71 71 72 73 73 73 70 70 71 71 71
20 19 16 19 23 23 31 42 48 46 40 42 48 44 44 48 51 54 57 54 54 56 57 58 56 57 57 59 59 61 63 64 69 69 69 70 69 70 70 70 71 72 73 73 73 73 74 74 74 74 75 76 77 76 76 76 75 72 71 70 70 68 70 69 68 69 68 71 72 73 73 73 73 73 73 73 72 71 72 71 71 71 71 71 71 71 71 71 71 71 71 70 71 70 70 71 71
13 14 13 13 18 29 37 41 45 46 42 41 47 45 47 50 53 56 56 53 52 53 56 57 58 58 59 59 60 63 64 66 67 66 69 68 69 70 71 70 71 71 72 73 73 74 74 74 74 74 74 74 76 76 76 75 75 76 75 73 70 65 66 68 65 67 70 71 72 73 73 72 72 72 73 72 72 72 71 71 73 73 72 72 71 71 71 70 71 71 70 70 70 70 71 71 71
13 12 16 15 18 28 29 41 44 46 38 39 49 41 51 54 58 56 57 53 58 61 60 60 60 61 60 58 60 63 64 67 66 67 65 67 69 70 71 71 71 71 72 72 73 73 74 74 75 75 75 75 74 74 73 74 73 74 73 71 70 68 66 68 70 69 67 68 70 72 72 72 72 72 72 72 72 72 72 72 71 71 71 72 72 71 71 70 71 70 70 70 69 68 68 68 70
15 16 12 13 21 24 19 38 44 46 44 47 48 44 50 53 50 54 58 60 58 59 61 62 62 62 63 61 61 63 63 66 65 65 65 67 69 69 71 71 71 71 71 71 73 73 74 74 74 75 74 74 73 74 74 72 72 70 69 69 68 66 67 65 64 62 65 65 64 68 69 71 71 71 72 72 72 72 71 71 71 71 71 71 70 70 70 69 70 70 70 70 69 68 67 67 68
14 14 16 13 12 21 20 43 44 40 40 43 43 38 39 48 47 44 50 57 58 58 59 61 63 62 65 64 65 65 65 65 66 66 66 67 68 70 71 72 71 70 71 73 73 74 75 74 75 74 73 72 72 72 71 70 69 67 66 65 62 63 63 63 62 63 62 65 64 65 67 68 68 70 70 70 70 70 71 71 72 71 71 71 70 69 70 70 70 70 69 69 69 69 69 67 67
13 15 16 15 20 19 27 42 35 31 31 41 42 35 28 38 47 48 51 53 55 58 59 57 61 64 63 63 63 64 64 65 66 65 65 65 67 70 71 72 71 70 73 73 74 75 75 74 74 73 72 71 71 71 70 69 70 67 64 62 62 62 61 62 64 65 65 66 66 66 66 67 69 69 68 69 69 70 71 72 72 71 71 72 72 72 71 70 70 70 70 70 69 69 69 69 67
13 25 25 24 24 31 39 37 27 26 30 43 43 39 32 33 40 50 52 54 53 56 59 59 56 62 60 61 61 64 63 64 65 67 67 66 68 68 70 71 70 70 73 74 74 74 74 73 73 71 70 70 70 70 69 68 66 65 65 64 64 63 61 63 65 66 66 66 65 66 66 67 69 69 69 70 71 71 73 73 73 73 73 71 70 70 71 70 70 70 70 70 70 69 69 69 68
25 31 27 25 29 34 32 29 25 33 37 44 45 43 38 32 38 47 51 51 53 54 56 58 59 60 61 60 60 63 64 64 64 64 66 66 68 69 70 71 71 72 72 72 73 73 72 71 71 70 69 69 69 69 67 67 67 66 65 65 64 64 64 64 62 65 65 66 66 65 67 66 68 69 70 70 72 72 71 72 72 72 71 72 72 70 70 70 70 70 70 71 71 70 70 70 69
32 38 38 38 37 34 30 28 28 36 35 30 36 41 32 27 31 47 49 50 51 52 54 55 58 59 61 60 60 62 65 66 65 64 65 67 68 68 69 70 72 69 70 71 70 69 69 70 69 68 68 68 69 68 69 68 66 66 66 66 66 66 67 67 65 66 66 66 66 66 66 66 65 67 68 68 71 71 71 71 70 71 71 70 70 70 70 71 70 69 68 69 69 70 71 71 70
37 36 34 35 33 35 37 33 34 34 29 28 25 30 27 20 28 30 47 50 49 47 51 53 57 59 60 62 61 61 64 66 65 64 65 67 67 69 71 71 70 68 68 68 67 67 66 67 67 67 68 67 68 69 68 67 67 66 66 65 65 65 65 65 64 65 65 65 65 65 65 66 66 65 66 66 66 67 68 70 69 69 69 70 70 70 70 70 69 70 69 70 72 72 71 70 69
33 27 29 33 37 38 36 34 38 29 24 31 29 29 31 25 24 28 37 44 43 42 43 52 53 57 60 62 61 61 64 65 66 65 65 67 70 70 69 69 68 67 67 66 65 65 65 66 67 67 67 68 69 69 68 66 65 66 66 65 65 65 65 64 64 64 65 65 65 65 65 66 66 66 66 64 65 64 67 68 69 69 69 70 70 69 68 70 70 70 71 70 69 70 69 69 69
22 24 28 21 27 30 24 29 26 23 20 36 29 31 31 34 32 29 28 38 47 45 41 45 53 55 60 61 62 62 63 64 65 65 67 69 69 69 68 69 67 67 66 66 65 62 65 66 66 66 68 69 68 67 68 67 67 67 65 65 65 65 66 64 65 64 65 65 65 65 65 65 65 65 65 65 64 66 66 67 68 67 68 69 70 70 69 70 71 70 69 69 70 70 69 67 68
17 22 24 21 24 21 22 22 22 20 30 27 28 37 28 28 30 36 34 31 43 47 46 45 50 55 59 62 63 61 63 63 63 65 66 68 68 68 69 68 67 66 66 66 65 64 66 65 66 66 67 66 65 65 63 63 64 64 65 65 65 66 65 65 65 63 64 65 65 65 65 64 65 65 64 65 64 66 65 66 67 67 67 67 67 68 68 68 68 68 68 68 68 70 68 67 67
16 15 15 21 24 19 22 20 20 20 18 31 35 29 25 22 28 43 49 49 50 49 49 51 54 55 58 60 63 61 63 64 64 65 66 68 68 68 68 68 66 66 65 64 65 66 66 64 66 66 65 65 64 64 63 64 64 64 65 65 66 66 64 64 64 65 65 65 64 65 66 65 64 65 64 65 66 66 65 65 66 66 66 66 66 67 67 67 67 68 68 68 69 68 68 69 67
15 16 18 20 21 22 15 27 20 20 22 27 34 25 27 25 49 48 49 48 50 50 52 53 56 58 58 60 61 61 62 62 62 64 66 68 69 69 68 67 66 65 66 64 66 66 64 65 66 65 65 65 64 64 64 64 64 65 66 65 65 65 65 64 65 65 65 65 65 65 65 65 65 64 65 65 64 64 65 65 65 65 66 66 66 67 66 65 66 66 67 68 67 68 68 68 67
19 19 19 19 22 16 26 28 22 21 21 21 32 29 27 28 26 29 39 45 46 50 50 49 52 54 59 60 62 61 62 61 62 65 66 68 68 68 67 67 64 63 64 64 67 66 65 65 65 65 66 65 65 65 65 65 65 65 66 66 65 64 63 63 62 62 63 64 66 65 64 64 65 65 63 64 64 65 66 65 65 65 67 66 65 65 65 65 66 66 66 67 67 67 68 68 68
17 16 17 25 22 24 28 19 30 22 18 22 25 24 22 25 22 40 42 36 36 48 52 49 52 54 57 60 62 63 63 62 64 66 66 67 67 67 65 64 63 63 64 66 67 66 65 66 64 65 65 65 66 65 65 65 65 65 65 66 65 65 63 63 63 62 63 64 64 65 65 64 63 63 63 65 65 65 66 66 66 66 65 64 65 65 65 65 65 65 66 66 66 67 66 66 67
17 16 24 15 20 20 28 27 22 21 20 21 24 23 20 24 28 27 35 32 35 42 55 53 52 52 56 59 62 65 64 62 63 63 65 66 65 64 64 61 60 63 66 67 67 65 64 65 64 64 65 65 66 65 65 66 65 64 65 65 64 64 64 63 63 63 64 64 64 64 64 64 64 64 64 65 65 64 65 65 65 65 63 63 64 63 64 64 64 64 65 64 63 64 64 64 65
21 22 19 19 23 26 29 27 27 26 19 20 20 22 22 29 25 28 28 33 34 37 54 54 52 53 56 60 62 64 64 62 62 63 65 65 63 61 58 59 59 63 65 66 63 61 60 63 65 65 65 66 66 66 66 65 66 65 65 65 65 64 64 63 63 63 63 62 63 63 64 63 64 63 63 64 64 64 64 64 62 62 63 63 63 63 63 64 65 64 63 61 62 62 62 63 62
18 19 19 20 21 25 25 27 22 21 24 22 21 16 23 31 29 27 32 34 36 37 46 55 54 54 56 60 62 64 65 62 62 63 64 63 61 58 58 59 60 63 65 62 59 59 58 60 63 63 65 65 65 65 65 65 65 65 65 65 64 64 64 63 63 63 63 63 64 64 63 63 65 64 64 64 64 65 65 65 65 66 65 66 66 64 65 65 65 64 64 64 63 63 63 62 62
17 17 18 18 22 22 21 24 22 21 20 22 23 20 28 34 39 37 31 35 36 40 45 48 54 54 58 60 62 64 64 64 62 61 61 60 61 59 58 60 62 63 62 59 59 59 57 60 59 60 58 60 62 64 66 66 65 64 64 64 64 63 63 62 62 62 62 62 62 62 63 64 63 64 64 63 65 64 65 65 65 66 67 67 67 66 64 65 65 65 65 65 64 64 63 63 64